Location: Unspecified
(0.0000°N, 0.0000°E)
Time: 03:11:29
(UTC+00:00)

N. Korean satellite - Pass Details

Date: 03 February 2023
Orbit: 408 x 444 km, 97.3° (Epoch: 27 January)

Event Time Altitude Azimuth Distance (km) Brightness Sun altitude
Rises 05:34:48 0° 346° (NNW) 2,383 9.8 -9.3°
Reaches altitude 10° 05:37:13 10° 326° (NW) 1,527 8.6 -8.8°
Maximum altitude 05:39:33 18° 281° (W) 1,130 7.8 -8.2°
Drops below altitude 10° 05:41:54 10° 235° (SW) 1,544 8.8 -7.6°
Sets 05:44:22 0° 216° (SW) 2,420 9.9 -7.0°
